Time,TemperatureF,DewpointF,PressureIn,WindDirection,WindDirectionDegrees,WindSpeedMPH,WindSpeedGustMPH,Humidity,HourlyPrecipIn,Conditions,Clouds,dailyrainin,SoftwareType,DateUTC
2013-06-07 00:01:00,62.1,62.1,30.07,SE,130,5.0,7.0,0,0.01,,,0.01,meteohub,2013-06-07 04:01:00,
2013-06-07 00:02:00,62.1,62.1,30.07,ESE,109,1.0,7.0,0,0.01,,,0.01,meteohub,2013-06-07 04:02:00,
2013-06-07 00:07:00,62.1,62.1,30.07,East,100,0.0,8.0,0,0.01,,,0.01,meteohub,2013-06-07 04:07:00,
2013-06-07 00:12:00,62.1,62.1,30.06,East,96,7.0,8.0,0,0.00,,,0.01,meteohub,2013-06-07 04:12:00,
2013-06-07 00:17:00,62.1,62.1,30.06,NNE,33,1.0,9.0,0,0.00,,,0.01,meteohub,2013-06-07 04:17:00,
2013-06-07 00:22:00,61.9,61.9,30.06,ESE,121,2.0,9.0,0,0.00,,,0.01,meteohub,2013-06-07 04:22:00,
2013-06-07 00:27:00,61.9,61.9,30.07,ESE,115,3.0,8.0,0,0.00,,,0.01,meteohub,2013-06-07 04:27:00,
2013-06-07 00:32:00,61.9,61.9,30.07,SSE,167,3.0,6.0,0,0.00,,,0.01,meteohub,2013-06-07 04:32:00,
2013-06-07 00:37:00,61.9,61.9,30.07,ENE,72,3.0,6.0,0,0.00,,,0.01,meteohub,2013-06-07 04:37:00,
2013-06-07 00:42:00,61.9,-14.3,30.07,ESE,105,0.0,9.0,4,0.00,,,0.01,meteohub,2013-06-07 04:42:00,
2013-06-07 00:47:00,61.9,0.0,30.06,ENE,74,1.0,9.0,8,0.00,,,0.01,meteohub,2013-06-07 04:47:00,
2013-06-07 00:52:00,61.9,6.8,30.06,ENE,70,2.0,9.0,11,0.00,,,0.01,meteohub,2013-06-07 04:52:00,
2013-06-07 00:57:00,61.9,12.2,30.06,East,87,1.0,7.0,14,0.00,,,0.01,meteohub,2013-06-07 04:57:00,
2013-06-07 01:03:00,61.9,10.4,30.05,East,81,2.0,7.0,13,0.00,,,0.01,meteohub,2013-06-07 05:03:00,
2013-06-07 01:08:00,61.7,13.6,30.05,ESE,107,3.0,7.0,15,0.00,,,0.01,meteohub,2013-06-07 05:08:00,
2013-06-07 01:13:00,61.5,8.4,30.05,ENE,67,2.0,7.0,12,0.00,,,0.01,meteohub,2013-06-07 05:13:00,
2013-06-07 01:18:00,61.5,-0.4,30.06,ESE,107,0.0,7.0,8,0.00,,,0.01,meteohub,2013-06-07 05:18:00,
2013-06-07 01:23:00,61.3,-10.3,30.06,East,100,3.0,6.0,5,0.00,,,0.01,meteohub,2013-06-07 05:23:00,
2013-06-07 01:28:00,61.2,-20.4,30.05,ESE,120,4.0,6.0,3,0.00,,,0.01,meteohub,2013-06-07 05:28:00,
2013-06-07 01:33:00,61.2,61.2,30.05,SE,145,2.0,7.0,0,0.00,,,0.01,meteohub,2013-06-07 05:33:00,
2013-06-07 01:38:00,61.0,61.0,30.04,ENE,77,3.0,7.0,0,0.00,,,0.01,meteohub,2013-06-07 05:38:00,
2013-06-07 01:43:00,61.0,61.0,30.04,ESE,123,1.0,8.0,0,0.00,,,0.01,meteohub,2013-06-07 05:43:00,
2013-06-07 01:48:00,61.0,61.0,30.04,ESE,113,1.0,8.0,0,0.00,,,0.01,meteohub,2013-06-07 05:48:00,
2013-06-07 01:53:00,61.0,-28.1,30.04,SE,131,1.0,8.0,2,0.00,,,0.01,meteohub,2013-06-07 05:53:00,
2013-06-07 01:58:00,61.0,1.8,30.04,SSE,149,5.0,6.0,9,0.00,,,0.01,meteohub,2013-06-07 05:58:00,
2013-06-07 02:03:00,61.0,15.8,30.04,NNE,26,2.0,7.0,17,0.00,,,0.01,meteohub,2013-06-07 06:03:00,
2013-06-07 02:08:00,61.0,20.8,30.04,ESE,117,1.0,7.0,21,0.00,,,0.01,meteohub,2013-06-07 06:08:00,
2013-06-07 02:13:00,61.0,22.8,30.04,SSW,194,4.0,8.0,23,0.00,,,0.01,meteohub,2013-06-07 06:13:00,
2013-06-07 02:18:00,61.0,23.9,30.04,SE,143,4.0,8.0,24,0.00,,,0.01,meteohub,2013-06-07 06:18:00,
2013-06-07 02:23:00,61.0,22.8,30.04,ESE,119,6.0,8.0,23,0.00,,,0.01,meteohub,2013-06-07 06:23:00,
2013-06-07 02:28:00,60.8,20.7,30.04,ESE,110,1.0,7.0,21,0.01,,,0.02,meteohub,2013-06-07 06:28:00,
2013-06-07 02:33:00,60.6,18.1,30.04,East,96,1.0,9.0,19,0.01,,,0.02,meteohub,2013-06-07 06:33:00,
2013-06-07 02:38:00,60.6,7.7,30.04,SE,143,1.0,9.0,12,0.01,,,0.02,meteohub,2013-06-07 06:38:00,
2013-06-07 02:43:00,60.4,-4.0,30.03,SE,134,3.0,6.0,7,0.01,,,0.02,meteohub,2013-06-07 06:43:00,
2013-06-07 02:48:00,60.3,-21.1,30.03,SE,135,5.0,8.0,3,0.02,,,0.03,meteohub,2013-06-07 06:48:00,
2013-06-07 02:53:00,60.1,-11.2,30.04,SW,225,1.0,8.0,5,0.02,,,0.03,meteohub,2013-06-07 06:53:00,
2013-06-07 02:58:00,59.9,-15.7,30.03,East,94,7.0,9.0,4,0.02,,,0.03,meteohub,2013-06-07 06:58:00,
2013-06-07 03:03:00,59.7,-41.3,30.03,East,101,0.0,9.0,1,0.02,,,0.03,meteohub,2013-06-07 07:03:00,
2013-06-07 03:08:00,59.7,59.7,30.03,East,94,0.0,8.0,0,0.02,,,0.03,meteohub,2013-06-07 07:08:00,
2013-06-07 03:13:00,59.7,59.7,30.03,SSE,164,3.0,7.0,0,0.02,,,0.03,meteohub,2013-06-07 07:13:00,
2013-06-07 03:18:00,59.7,59.7,30.03,ESE,122,2.0,8.0,0,0.03,,,0.04,meteohub,2013-06-07 07:18:00,
2013-06-07 03:23:00,59.5,59.5,30.03,SE,131,2.0,8.0,0,0.03,,,0.04,meteohub,2013-06-07 07:23:00,
2013-06-07 03:28:00,59.5,59.5,30.03,SE,128,1.0,8.0,0,0.02,,,0.04,meteohub,2013-06-07 07:28:00,
2013-06-07 03:33:00,59.5,59.5,30.02,East,82,1.0,7.0,0,0.02,,,0.04,meteohub,2013-06-07 07:33:00,
2013-06-07 03:38:00,59.5,59.5,30.02,ENE,68,1.0,7.0,0,0.02,,,0.04,meteohub,2013-06-07 07:38:00,
2013-06-07 03:43:00,59.5,59.5,30.02,ESE,117,1.0,6.0,0,0.01,,,0.04,meteohub,2013-06-07 07:43:00,
2013-06-07 03:48:00,59.5,59.5,30.02,SE,124,1.0,9.0,0,0.01,,,0.04,meteohub,2013-06-07 07:48:00,
2013-06-07 03:53:00,59.5,59.5,30.02,SSE,149,2.0,9.0,0,0.01,,,0.04,meteohub,2013-06-07 07:53:00,
2013-06-07 03:58:00,59.5,59.5,30.02,East,88,1.0,9.0,0,0.01,,,0.04,meteohub,2013-06-07 07:58:00,
2013-06-07 04:03:00,59.5,59.5,30.02,SSE,148,1.0,6.0,0,0.01,,,0.04,meteohub,2013-06-07 08:03:00,
2013-06-07 04:08:00,59.5,59.5,30.02,ESE,117,0.0,5.0,0,0.01,,,0.04,meteohub,2013-06-07 08:08:00,
2013-06-07 04:13:00,59.5,59.5,30.03,ENE,65,2.0,5.0,0,0.01,,,0.04,meteohub,2013-06-07 08:13:00,
2013-06-07 04:18:00,59.5,59.5,30.02,ESE,118,3.0,4.0,0,0.00,,,0.04,meteohub,2013-06-07 08:18:00,
2013-06-07 04:23:00,59.5,59.5,30.02,ESE,115,1.0,4.0,0,0.00,,,0.04,meteohub,2013-06-07 08:23:00,
2013-06-07 04:28:00,59.7,59.7,30.02,East,91,0.0,7.0,0,0.00,,,0.04,meteohub,2013-06-07 08:28:00,
2013-06-07 04:33:00,59.7,59.7,30.02,East,101,5.0,7.0,0,0.00,,,0.04,meteohub,2013-06-07 08:33:00,
2013-06-07 04:38:00,59.9,59.9,30.02,ESE,120,2.0,7.0,0,0.00,,,0.04,meteohub,2013-06-07 08:38:00,
2013-06-07 04:43:00,59.9,59.9,30.02,ESE,105,2.0,6.0,0,0.00,,,0.04,meteohub,2013-06-07 08:43:00,
2013-06-07 04:48:00,59.9,59.9,30.01,ESE,115,2.0,6.0,0,0.00,,,0.04,meteohub,2013-06-07 08:48:00,
2013-06-07 04:53:00,59.9,59.9,30.01,East,94,4.0,8.0,0,0.00,,,0.04,meteohub,2013-06-07 08:53:00,
2013-06-07 04:58:00,59.9,59.9,30.01,South,181,3.0,8.0,0,0.00,,,0.04,meteohub,2013-06-07 08:58:00,
2013-06-07 05:03:00,59.9,59.9,30.01,NW,312,2.0,8.0,0,0.00,,,0.04,meteohub,2013-06-07 09:03:00,
2013-06-07 05:08:00,59.9,59.9,30.01,NE,39,3.0,8.0,0,0.00,,,0.04,meteohub,2013-06-07 09:08:00,
2013-06-07 05:13:00,60.1,60.1,30.01,East,97,2.0,9.0,0,0.00,,,0.04,meteohub,2013-06-07 09:13:00,
2013-06-07 05:19:00,60.1,60.1,30.01,ENE,75,5.0,9.0,0,0.00,,,0.04,meteohub,2013-06-07 09:19:00,
2013-06-07 05:24:00,60.3,60.3,30.01,ESE,119,3.0,8.0,0,0.00,,,0.04,meteohub,2013-06-07 09:24:00,
2013-06-07 05:29:00,60.4,60.4,30.02,ENE,77,1.0,8.0,0,0.00,,,0.04,meteohub,2013-06-07 09:29:00,
2013-06-07 05:34:00,60.4,60.4,30.01,East,91,7.0,7.0,0,0.00,,,0.04,meteohub,2013-06-07 09:34:00,
2013-06-07 05:39:00,60.4,60.4,30.01,East,99,1.0,8.0,0,0.01,,,0.05,meteohub,2013-06-07 09:39:00,
2013-06-07 05:44:00,60.4,60.4,30.02,ESE,121,1.0,10.0,0,0.01,,,0.05,meteohub,2013-06-07 09:44:00,
2013-06-07 05:49:00,60.3,60.3,30.02,SSE,155,5.0,10.0,0,0.02,,,0.06,meteohub,2013-06-07 09:49:00,
2013-06-07 05:54:00,60.3,60.3,30.02,East,79,4.0,10.0,0,0.03,,,0.07,meteohub,2013-06-07 09:54:00,
2013-06-07 05:59:00,60.1,60.1,30.01,ESE,103,8.0,12.0,0,0.04,,,0.08,meteohub,2013-06-07 09:59:00,
2013-06-07 06:04:00,60.1,60.1,30.01,ENE,60,2.0,12.0,0,0.04,,,0.08,meteohub,2013-06-07 10:04:00,
2013-06-07 06:09:00,60.1,60.1,30.01,SE,132,4.0,12.0,0,0.04,,,0.08,meteohub,2013-06-07 10:09:00,
2013-06-07 06:14:00,60.1,60.1,30.01,ESE,118,2.0,11.0,0,0.04,,,0.08,meteohub,2013-06-07 10:14:00,
2013-06-07 06:19:00,60.1,60.1,30.01,East,94,0.0,13.0,0,0.05,,,0.09,meteohub,2013-06-07 10:19:00,
2013-06-07 06:24:00,60.1,60.1,30.02,ESE,113,0.0,13.0,0,0.05,,,0.09,meteohub,2013-06-07 10:24:00,
2013-06-07 06:29:00,60.1,60.1,30.02,SE,139,4.0,7.0,0,0.05,,,0.09,meteohub,2013-06-07 10:29:00,
2013-06-07 06:34:00,60.1,60.1,30.01,ESE,115,8.0,10.0,0,0.05,,,0.09,meteohub,2013-06-07 10:34:00,
2013-06-07 06:39:00,60.1,60.1,30.01,East,86,4.0,10.0,0,0.04,,,0.09,meteohub,2013-06-07 10:39:00,
2013-06-07 06:44:00,60.3,60.3,30.01,ESE,104,2.0,8.0,0,0.04,,,0.09,meteohub,2013-06-07 10:44:00,
2013-06-07 06:49:00,60.3,60.3,30.01,ESE,119,2.0,10.0,0,0.02,,,0.09,meteohub,2013-06-07 10:49:00,
2013-06-07 06:54:00,60.3,60.3,30.00,East,101,5.0,10.0,0,0.02,,,0.09,meteohub,2013-06-07 10:54:00,
2013-06-07 06:59:00,60.3,60.3,30.01,East,100,4.0,10.0,0,0.01,,,0.09,meteohub,2013-06-07 10:59:00,
2013-06-07 07:04:00,60.3,60.3,30.00,East,100,1.0,10.0,0,0.01,,,0.09,meteohub,2013-06-07 11:04:00,
2013-06-07 07:09:00,60.3,60.3,30.01,South,183,6.0,10.0,0,0.01,,,0.09,meteohub,2013-06-07 11:09:00,
2013-06-07 07:14:00,60.3,60.3,30.01,SE,135,4.0,11.0,0,0.00,,,0.09,meteohub,2013-06-07 11:14:00,
2013-06-07 07:19:00,60.3,60.3,30.01,ENE,68,4.0,13.0,0,0.00,,,0.09,meteohub,2013-06-07 11:19:00,
2013-06-07 07:24:00,60.3,60.3,30.00,ESE,118,10.0,13.0,0,0.00,,,0.09,meteohub,2013-06-07 11:24:00,
2013-06-07 07:29:00,60.3,60.3,30.01,ENE,58,2.0,11.0,0,0.00,,,0.09,meteohub,2013-06-07 11:29:00,
2013-06-07 07:34:00,60.3,60.3,30.01,WNW,283,2.0,11.0,0,0.00,,,0.09,meteohub,2013-06-07 11:34:00,
2013-06-07 07:39:00,60.3,60.3,30.01,NE,41,1.0,11.0,0,0.00,,,0.09,meteohub,2013-06-07 11:39:00,
2013-06-07 07:44:00,60.3,60.3,30.00,East,101,8.0,11.0,0,0.00,,,0.09,meteohub,2013-06-07 11:44:00,
2013-06-07 07:49:00,60.3,60.3,30.00,East,100,6.0,11.0,0,0.00,,,0.09,meteohub,2013-06-07 11:49:00,
2013-06-07 07:54:00,60.3,60.3,30.00,East,98,4.0,10.0,0,0.00,,,0.09,meteohub,2013-06-07 11:54:00,
2013-06-07 07:59:00,60.3,60.3,30.00,SE,135,2.0,13.0,0,0.00,,,0.09,meteohub,2013-06-07 11:59:00,
2013-06-07 08:04:00,60.3,60.3,29.99,ENE,65,3.0,16.0,0,0.00,,,0.09,meteohub,2013-06-07 12:04:00,
2013-06-07 08:09:00,60.3,60.3,30.00,NE,56,2.0,16.0,0,0.00,,,0.09,meteohub,2013-06-07 12:09:00,
2013-06-07 08:14:00,60.4,60.4,30.00,ESE,121,4.0,16.0,0,0.00,,,0.09,meteohub,2013-06-07 12:14:00,
2013-06-07 08:19:00,60.4,60.4,30.00,East,96,3.0,12.0,0,0.00,,,0.09,meteohub,2013-06-07 12:19:00,
2013-06-07 08:24:00,60.4,60.4,30.00,NE,34,4.0,12.0,0,0.00,,,0.09,meteohub,2013-06-07 12:24:00,
2013-06-07 08:29:00,60.4,60.4,30.00,SE,131,0.0,12.0,0,0.00,,,0.09,meteohub,2013-06-07 12:29:00,
2013-06-07 08:34:00,60.4,60.4,30.00,ENE,61,6.0,12.0,0,0.00,,,0.09,meteohub,2013-06-07 12:34:00,
2013-06-07 08:39:00,60.4,60.4,30.00,East,83,3.0,11.0,0,0.00,,,0.09,meteohub,2013-06-07 12:39:00,
2013-06-07 08:44:00,60.4,60.4,30.00,East,84,5.0,12.0,0,0.01,,,0.10,meteohub,2013-06-07 12:44:00,
2013-06-07 08:49:00,60.4,60.4,30.00,South,169,3.0,12.0,0,0.01,,,0.10,meteohub,2013-06-07 12:49:00,
2013-06-07 08:54:00,60.4,60.4,30.00,SSE,148,3.0,12.0,0,0.01,,,0.10,meteohub,2013-06-07 12:54:00,
2013-06-07 08:59:00,60.4,60.4,30.01,SE,128,2.0,11.0,0,0.01,,,0.10,meteohub,2013-06-07 12:59:00,
2013-06-07 09:04:00,60.4,60.4,30.01,ESE,114,3.0,11.0,0,0.01,,,0.10,meteohub,2013-06-07 13:04:00,
2013-06-07 09:10:00,60.4,60.4,30.01,SE,141,5.0,11.0,0,0.01,,,0.10,meteohub,2013-06-07 13:10:00,
2013-06-07 09:15:00,60.4,60.4,30.01,SE,125,5.0,10.0,0,0.01,,,0.10,meteohub,2013-06-07 13:15:00,
2013-06-07 09:20:00,60.4,60.4,30.00,ENE,64,8.0,10.0,0,0.01,,,0.10,meteohub,2013-06-07 13:20:00,
2013-06-07 09:25:00,60.6,60.6,30.00,SE,134,2.0,14.0,0,0.01,,,0.10,meteohub,2013-06-07 13:25:00,
2013-06-07 09:30:00,60.6,60.6,30.00,SE,145,4.0,14.0,0,0.01,,,0.10,meteohub,2013-06-07 13:30:00,
2013-06-07 09:35:00,60.6,60.6,29.99,ENE,71,8.0,14.0,0,0.01,,,0.10,meteohub,2013-06-07 13:35:00,
2013-06-07 09:40:00,60.6,60.6,29.99,SSE,151,6.0,13.0,0,0.00,,,0.10,meteohub,2013-06-07 13:40:00,
2013-06-07 09:45:00,60.6,60.6,29.99,SE,124,4.0,12.0,0,0.00,,,0.10,meteohub,2013-06-07 13:45:00,
2013-06-07 09:50:00,60.6,60.6,29.99,ESE,117,6.0,15.0,0,0.00,,,0.10,meteohub,2013-06-07 13:50:00,
2013-06-07 09:55:00,60.6,60.6,29.99,ESE,116,6.0,15.0,0,0.00,,,0.10,meteohub,2013-06-07 13:55:00,
2013-06-07 10:00:00,60.6,60.6,29.99,SE,137,1.0,13.0,0,0.00,,,0.10,meteohub,2013-06-07 14:00:00,
2013-06-07 10:05:00,60.6,60.6,29.99,ESE,105,5.0,13.0,0,0.00,,,0.10,meteohub,2013-06-07 14:05:00,
2013-06-07 10:10:00,60.6,60.6,29.99,NE,49,8.0,11.0,0,0.00,,,0.10,meteohub,2013-06-07 14:10:00,
2013-06-07 10:15:00,60.6,60.6,29.99,ENE,72,6.0,11.0,0,0.00,,,0.10,meteohub,2013-06-07 14:15:00,
2013-06-07 10:20:00,60.6,60.6,29.99,East,101,2.0,13.0,0,0.00,,,0.10,meteohub,2013-06-07 14:20:00,
2013-06-07 10:25:00,60.6,60.6,29.98,East,86,14.0,14.0,0,0.00,,,0.10,meteohub,2013-06-07 14:25:00,
2013-06-07 10:30:00,60.4,60.4,29.99,East,89,10.0,14.0,0,0.01,,,0.11,meteohub,2013-06-07 14:30:00,
2013-06-07 10:35:00,60.4,60.4,29.99,ENE,75,3.0,15.0,0,0.01,,,0.11,meteohub,2013-06-07 14:35:00,
2013-06-07 10:40:00,60.4,60.4,29.98,NNE,30,2.0,15.0,0,0.01,,,0.11,meteohub,2013-06-07 14:40:00,
2013-06-07 10:45:00,60.4,60.4,29.99,NE,51,4.0,15.0,0,0.01,,,0.11,meteohub,2013-06-07 14:45:00,
2013-06-07 10:50:00,60.4,60.4,29.98,SE,132,4.0,15.0,0,0.01,,,0.11,meteohub,2013-06-07 14:50:00,
2013-06-07 10:55:00,60.4,60.4,29.98,ENE,64,6.0,17.0,0,0.02,,,0.12,meteohub,2013-06-07 14:55:00,
2013-06-07 11:00:00,60.4,60.4,29.98,ESE,120,14.0,18.0,0,0.02,,,0.12,meteohub,2013-06-07 15:00:00,
2013-06-07 11:05:00,60.6,60.6,29.98,SE,132,9.0,18.0,0,0.03,,,0.13,meteohub,2013-06-07 15:05:00,
2013-06-07 11:10:00,60.6,60.6,29.98,ESE,117,8.0,18.0,0,0.05,,,0.15,meteohub,2013-06-07 15:10:00,
2013-06-07 11:15:00,60.6,60.6,29.97,ENE,77,5.0,15.0,0,0.05,,,0.15,meteohub,2013-06-07 15:15:00,
2013-06-07 11:20:00,60.6,60.6,29.98,ENE,74,5.0,13.0,0,0.05,,,0.15,meteohub,2013-06-07 15:20:00,
2013-06-07 11:25:00,60.6,60.6,29.98,ENE,58,2.0,14.0,0,0.06,,,0.17,meteohub,2013-06-07 15:25:00,
2013-06-07 11:30:00,60.6,60.6,29.97,East,92,12.0,14.0,0,0.06,,,0.17,meteohub,2013-06-07 15:30:00,
2013-06-07 11:35:00,60.4,60.4,29.97,ENE,63,6.0,14.0,0,0.07,,,0.18,meteohub,2013-06-07 15:35:00,
2013-06-07 11:40:00,60.4,60.4,29.97,East,88,4.0,20.0,0,0.08,,,0.19,meteohub,2013-06-07 15:40:00,
2013-06-07 11:45:00,60.6,60.6,29.97,SE,132,12.0,20.0,0,0.09,,,0.20,meteohub,2013-06-07 15:45:00,
2013-06-07 11:50:00,60.4,60.4,29.97,ESE,117,6.0,20.0,0,0.09,,,0.21,meteohub,2013-06-07 15:50:00,
2013-06-07 11:55:00,60.3,60.3,29.97,ENE,63,8.0,15.0,0,0.10,,,0.22,meteohub,2013-06-07 15:55:00,
2013-06-07 12:00:00,60.3,60.3,29.97,East,93,2.0,15.0,0,0.10,,,0.23,meteohub,2013-06-07 16:00:00,
2013-06-07 12:05:00,60.3,60.3,29.97,East,98,7.0,14.0,0,0.10,,,0.24,meteohub,2013-06-07 16:05:00,
2013-06-07 12:10:00,60.1,60.1,29.97,East,100,4.0,14.0,0,0.11,,,0.26,meteohub,2013-06-07 16:10:00,
2013-06-07 12:15:00,60.1,60.1,29.97,SSE,162,3.0,15.0,0,0.12,,,0.27,meteohub,2013-06-07 16:15:00,
2013-06-07 12:20:00,60.1,60.1,29.96,ENE,62,13.0,15.0,0,0.15,,,0.31,meteohub,2013-06-07 16:20:00,
2013-06-07 12:25:00,59.9,59.9,29.96,ENE,60,9.0,16.0,0,0.17,,,0.34,meteohub,2013-06-07 16:25:00,
2013-06-07 12:31:00,60.1,60.1,29.96,East,96,3.0,16.0,0,0.18,,,0.35,meteohub,2013-06-07 16:31:00,
2013-06-07 12:36:00,60.1,60.1,29.96,ENE,63,2.0,15.0,0,0.20,,,0.38,meteohub,2013-06-07 16:36:00,
2013-06-07 12:41:00,59.9,59.9,29.96,East,90,6.0,15.0,0,0.22,,,0.41,meteohub,2013-06-07 16:41:00,
2013-06-07 12:46:00,59.7,59.7,29.95,South,178,4.0,14.0,0,0.23,,,0.43,meteohub,2013-06-07 16:46:00,
2013-06-07 12:51:00,59.7,59.7,29.95,East,99,7.0,14.0,0,0.23,,,0.45,meteohub,2013-06-07 16:51:00,
2013-06-07 12:56:00,59.7,59.7,29.94,ESE,107,5.0,19.0,0,0.25,,,0.48,meteohub,2013-06-07 16:56:00,
2013-06-07 13:01:00,59.7,59.7,29.94,ENE,75,3.0,19.0,0,0.25,,,0.49,meteohub,2013-06-07 17:01:00,
2013-06-07 13:06:00,59.7,59.7,29.94,NE,55,7.0,19.0,0,0.26,,,0.51,meteohub,2013-06-07 17:06:00,
2013-06-07 13:11:00,59.7,59.7,29.94,ENE,62,3.0,17.0,0,0.26,,,0.52,meteohub,2013-06-07 17:11:00,
2013-06-07 13:16:00,59.7,59.7,29.94,ESE,117,11.0,17.0,0,0.24,,,0.53,meteohub,2013-06-07 17:16:00,
2013-06-07 13:21:00,59.9,59.9,29.94,SE,146,3.0,17.0,0,0.22,,,0.54,meteohub,2013-06-07 17:21:00,
2013-06-07 13:26:00,59.9,59.9,29.94,South,186,3.0,14.0,0,0.21,,,0.55,meteohub,2013-06-07 17:26:00,
2013-06-07 13:31:00,59.9,59.9,29.94,NNE,25,5.0,13.0,0,0.20,,,0.56,meteohub,2013-06-07 17:31:00,
2013-06-07 13:36:00,59.9,59.9,29.94,East,89,10.0,15.0,0,0.18,,,0.57,meteohub,2013-06-07 17:36:00,
2013-06-07 13:41:00,59.9,59.9,29.93,ENE,62,5.0,15.0,0,0.16,,,0.58,meteohub,2013-06-07 17:41:00,
2013-06-07 13:46:00,59.9,59.9,29.93,SE,125,6.0,15.0,0,0.15,,,0.59,meteohub,2013-06-07 17:46:00,
2013-06-07 13:51:00,60.1,60.1,29.93,SSE,149,5.0,14.0,0,0.14,,,0.60,meteohub,2013-06-07 17:51:00,
2013-06-07 13:56:00,60.1,60.1,29.93,ENE,71,4.0,13.0,0,0.12,,,0.60,meteohub,2013-06-07 17:56:00,
2013-06-07 14:02:00,60.3,60.3,29.93,ESE,108,6.0,13.0,0,0.10,,,0.60,meteohub,2013-06-07 18:02:00,
2013-06-07 14:07:00,60.3,60.3,29.92,East,96,6.0,12.0,0,0.10,,,0.61,meteohub,2013-06-07 18:07:00,
2013-06-07 14:12:00,60.3,60.3,29.93,South,174,7.0,13.0,0,0.10,,,0.62,meteohub,2013-06-07 18:12:00,
2013-06-07 14:17:00,60.4,60.4,29.93,ESE,117,5.0,13.0,0,0.09,,,0.63,meteohub,2013-06-07 18:17:00,
2013-06-07 14:22:00,60.4,60.4,29.93,East,96,10.0,13.0,0,0.08,,,0.63,meteohub,2013-06-07 18:22:00,
2013-06-07 14:27:00,60.3,60.3,29.92,ESE,105,4.0,13.0,0,0.08,,,0.64,meteohub,2013-06-07 18:27:00,
2013-06-07 14:32:00,60.3,60.3,29.93,ESE,105,4.0,13.0,0,0.07,,,0.64,meteohub,2013-06-07 18:32:00,
2013-06-07 14:37:00,60.3,60.3,29.92,ENE,67,8.0,17.0,0,0.08,,,0.65,meteohub,2013-06-07 18:37:00,
2013-06-07 14:42:00,60.4,60.4,29.92,East,99,9.0,17.0,0,0.07,,,0.65,meteohub,2013-06-07 18:42:00,
2013-06-07 14:47:00,60.4,60.4,29.92,ESE,121,1.0,17.0,0,0.06,,,0.65,meteohub,2013-06-07 18:47:00,
2013-06-07 14:52:00,60.4,60.4,29.92,East,99,5.0,11.0,0,0.05,,,0.65,meteohub,2013-06-07 18:52:00,
2013-06-07 14:58:00,60.4,60.4,29.92,ESE,112,5.0,11.0,0,0.05,,,0.65,meteohub,2013-06-07 18:58:00,
2013-06-07 15:03:00,60.6,60.6,29.91,SSW,200,2.0,11.0,0,0.05,,,0.66,meteohub,2013-06-07 19:03:00,
2013-06-07 15:08:00,60.6,60.6,29.91,ESE,118,12.0,12.0,0,0.05,,,0.66,meteohub,2013-06-07 19:08:00,
2013-06-07 15:13:00,60.6,60.6,29.91,SE,134,5.0,11.0,0,0.05,,,0.67,meteohub,2013-06-07 19:13:00,
2013-06-07 15:18:00,60.6,60.6,29.91,SE,135,3.0,14.0,0,0.04,,,0.67,meteohub,2013-06-07 19:18:00,
2013-06-07 15:23:00,60.6,60.6,29.91,ENE,69,4.0,14.0,0,0.04,,,0.68,meteohub,2013-06-07 19:23:00,
2013-06-07 15:29:00,60.4,60.4,29.91,ESE,103,8.0,13.0,0,0.05,,,0.69,meteohub,2013-06-07 19:29:00,
2013-06-07 15:34:00,60.3,60.3,29.91,SE,146,3.0,14.0,0,0.07,,,0.71,meteohub,2013-06-07 19:34:00,
2013-06-07 15:39:00,60.3,60.3,29.91,South,169,5.0,14.0,0,0.08,,,0.73,meteohub,2013-06-07 19:39:00,
2013-06-07 15:44:00,60.3,60.3,29.91,East,83,6.0,14.0,0,0.09,,,0.74,meteohub,2013-06-07 19:44:00,
2013-06-07 15:49:00,60.3,60.3,29.90,SE,141,5.0,12.0,0,0.12,,,0.77,meteohub,2013-06-07 19:49:00,
2013-06-07 15:54:00,60.3,60.3,29.90,East,82,3.0,9.0,0,0.13,,,0.78,meteohub,2013-06-07 19:54:00,
2013-06-07 15:59:00,60.3,60.3,29.90,East,80,6.0,10.0,0,0.13,,,0.79,meteohub,2013-06-07 19:59:00,
2013-06-07 16:04:00,60.1,60.1,29.90,SE,129,2.0,12.0,0,0.14,,,0.80,meteohub,2013-06-07 20:04:00,
2013-06-07 16:09:00,60.1,60.1,29.89,SE,128,8.0,13.0,0,0.15,,,0.81,meteohub,2013-06-07 20:09:00,
2013-06-07 16:14:00,60.1,60.1,29.89,SE,140,5.0,13.0,0,0.15,,,0.82,meteohub,2013-06-07 20:14:00,
2013-06-07 16:19:00,60.1,60.1,29.89,ESE,105,1.0,12.0,0,0.15,,,0.83,meteohub,2013-06-07 20:19:00,
2013-06-07 16:24:00,60.3,60.3,29.89,ENE,77,12.0,12.0,0,0.15,,,0.84,meteohub,2013-06-07 20:24:00,
2013-06-07 16:29:00,60.3,60.3,29.89,SE,145,1.0,11.0,0,0.14,,,0.84,meteohub,2013-06-07 20:29:00,
2013-06-07 16:34:00,60.3,60.3,29.88,SSE,152,4.0,12.0,0,0.14,,,0.85,meteohub,2013-06-07 20:34:00,
2013-06-07 16:39:00,60.3,60.3,29.88,South,186,3.0,12.0,0,0.13,,,0.86,meteohub,2013-06-07 20:39:00,
2013-06-07 16:45:00,60.3,60.3,29.88,ESE,111,4.0,10.0,0,0.10,,,0.86,meteohub,2013-06-07 20:45:00,
2013-06-07 16:50:00,60.1,60.1,29.87,East,94,3.0,14.0,0,0.12,,,0.90,meteohub,2013-06-07 20:50:00,
2013-06-07 16:55:00,60.1,60.1,29.86,East,91,5.0,14.0,0,0.11,,,0.91,meteohub,2013-06-07 20:55:00,
2013-06-07 17:01:00,60.1,60.1,29.86,NNE,20,1.0,14.0,0,0.13,,,0.93,meteohub,2013-06-07 21:01:00,
2013-06-07 17:06:00,60.1,60.1,29.86,ESE,106,2.0,12.0,0,0.13,,,0.94,meteohub,2013-06-07 21:06:00,
2013-06-07 17:11:00,60.1,60.1,29.86,SE,133,3.0,12.0,0,0.13,,,0.95,meteohub,2013-06-07 21:11:00,
2013-06-07 17:16:00,60.1,60.1,29.86,SSE,159,2.0,15.0,0,0.15,,,0.98,meteohub,2013-06-07 21:16:00,
2013-06-07 17:21:00,60.1,60.1,29.85,SSE,160,5.0,15.0,0,0.18,,,1.00,meteohub,2013-06-07 21:21:00,
2013-06-07 17:27:00,59.9,59.9,29.84,ESE,120,3.0,15.0,0,0.19,,,1.04,meteohub,2013-06-07 21:27:00,
2013-06-07 17:32:00,59.9,59.9,29.84,ESE,113,5.0,14.0,0,0.25,,,1.10,meteohub,2013-06-07 21:32:00,
2013-06-07 17:37:00,59.9,59.9,29.82,East,81,7.0,14.0,0,0.27,,,1.13,meteohub,2013-06-07 21:37:00,
2013-06-07 17:42:00,59.7,59.7,29.82,East,83,8.0,14.0,0,0.29,,,1.18,meteohub,2013-06-07 21:42:00,
2013-06-07 17:47:00,59.5,59.5,29.81,East,85,9.0,19.0,0,0.36,,,1.26,meteohub,2013-06-07 21:47:00,
2013-06-07 17:52:00,59.5,59.5,29.81,ESE,112,7.0,19.0,0,0.39,,,1.30,meteohub,2013-06-07 21:52:00,
2013-06-07 17:57:00,59.4,59.4,29.80,ENE,74,6.0,19.0,0,0.40,,,1.32,meteohub,2013-06-07 21:57:00,
2013-06-07 18:02:00,59.4,59.4,29.79,ESE,109,4.0,19.0,0,0.43,,,1.36,meteohub,2013-06-07 22:02:00,
2013-06-07 18:07:00,59.4,59.4,29.79,SE,127,5.0,19.0,0,0.41,,,1.36,meteohub,2013-06-07 22:07:00,
2013-06-07 18:12:00,59.4,59.4,29.78,SE,132,6.0,17.0,0,0.41,,,1.37,meteohub,2013-06-07 22:12:00,
2013-06-07 18:17:00,59.4,59.4,29.78,ENE,65,7.0,17.0,0,0.39,,,1.38,meteohub,2013-06-07 22:17:00,
2013-06-07 18:22:00,59.2,59.2,29.77,ENE,75,3.0,18.0,0,0.37,,,1.39,meteohub,2013-06-07 22:22:00,
2013-06-07 18:28:00,58.8,58.8,29.78,East,82,11.0,18.0,0,0.33,,,1.40,meteohub,2013-06-07 22:28:00,
2013-06-07 18:33:00,58.8,58.8,29.79,NE,54,9.0,18.0,0,0.36,,,1.47,meteohub,2013-06-07 22:33:00,
2013-06-07 18:38:00,58.6,58.6,29.79,ENE,59,8.0,17.0,0,0.32,,,1.48,meteohub,2013-06-07 22:38:00,
2013-06-07 18:43:00,58.6,58.6,29.78,ENE,61,13.0,17.0,0,0.39,,,1.59,meteohub,2013-06-07 22:43:00,
2013-06-07 18:48:00,58.6,58.6,29.78,East,86,6.0,19.0,0,0.37,,,1.65,meteohub,2013-06-07 22:48:00,
2013-06-07 18:53:00,58.6,58.6,29.78,East,88,3.0,19.0,0,0.33,,,1.65,meteohub,2013-06-07 22:53:00,
2013-06-07 18:58:00,58.6,58.6,29.77,ENE,60,11.0,19.0,0,0.32,,,1.67,meteohub,2013-06-07 22:58:00,
2013-06-07 19:03:00,58.6,58.6,29.78,ENE,72,7.0,17.0,0,0.32,,,1.68,meteohub,2013-06-07 23:03:00,
2013-06-07 19:09:00,58.6,58.6,29.78,East,101,5.0,19.0,0,0.34,,,1.71,meteohub,2013-06-07 23:09:00,
2013-06-07 19:14:00,58.5,58.5,29.78,ENE,77,5.0,21.0,0,0.44,,,1.81,meteohub,2013-06-07 23:14:00,
2013-06-07 19:20:00,58.5,58.5,29.78,NE,51,8.0,21.0,0,0.51,,,1.89,meteohub,2013-06-07 23:20:00,
2013-06-07 19:25:00,58.5,58.5,29.80,NE,40,5.0,20.0,0,0.54,,,1.94,meteohub,2013-06-07 23:25:00,
2013-06-07 19:31:00,58.6,58.6,29.78,East,81,7.0,20.0,0,0.58,,,2.05,meteohub,2013-06-07 23:31:00,
2013-06-07 19:37:00,58.6,58.6,29.79,NE,54,5.0,20.0,0,0.56,,,2.07,meteohub,2013-06-07 23:37:00,
2013-06-07 19:42:00,58.8,58.8,29.81,East,85,6.0,20.0,0,0.46,,,2.09,meteohub,2013-06-07 23:42:00,
2013-06-07 19:47:00,58.8,58.8,29.80,ENE,73,8.0,14.0,0,0.45,,,2.10,meteohub,2013-06-07 23:47:00,
2013-06-07 19:52:00,58.8,58.8,29.79,East,101,5.0,18.0,0,0.49,,,2.15,meteohub,2013-06-07 23:52:00,
2013-06-07 19:57:00,59.0,59.0,29.78,East,91,6.0,20.0,0,0.52,,,2.19,meteohub,2013-06-07 23:57:00,
2013-06-07 20:02:00,59.2,59.2,29.79,NNE,32,7.0,20.0,0,0.53,,,2.22,meteohub,2013-06-08 00:02:00,
2013-06-07 20:07:00,59.4,59.4,29.79,ENE,77,6.0,16.0,0,0.48,,,0.02,meteohub,2013-06-08 00:07:00,
2013-06-07 20:12:00,59.4,59.4,29.79,ESE,110,4.0,15.0,0,0.46,,,0.06,meteohub,2013-06-08 00:12:00,
2013-06-07 20:17:00,59.5,59.5,29.79,ENE,75,9.0,12.0,0,0.41,,,0.08,meteohub,2013-06-08 00:17:00,
2013-06-07 20:22:00,59.5,59.5,29.80,NNE,21,1.0,13.0,0,0.38,,,0.12,meteohub,2013-06-08 00:22:00,
2013-06-07 20:28:00,59.5,59.5,29.79,East,81,6.0,13.0,0,0.37,,,0.17,meteohub,2013-06-08 00:28:00,
2013-06-07 20:33:00,59.2,59.2,29.79,NNE,21,11.0,13.0,0,0.34,,,0.17,meteohub,2013-06-08 00:33:00,
2013-06-07 20:38:00,59.2,59.2,29.79,East,79,9.0,18.0,0,0.34,,,0.19,meteohub,2013-06-08 00:38:00,
2013-06-07 20:43:00,59.2,59.2,29.78,NE,38,5.0,18.0,0,0.34,,,0.20,meteohub,2013-06-08 00:43:00,
2013-06-07 20:48:00,59.2,59.2,29.78,NE,54,10.0,16.0,0,0.33,,,0.21,meteohub,2013-06-08 00:48:00,
2013-06-07 20:53:00,59.4,59.4,29.77,ENE,61,8.0,19.0,0,0.30,,,0.24,meteohub,2013-06-08 00:53:00,
2013-06-07 20:59:00,59.4,59.4,29.78,NNE,33,9.0,19.0,0,0.32,,,0.28,meteohub,2013-06-08 00:59:00,
2013-06-07 21:04:00,59.4,59.4,29.78,ENE,76,11.0,19.0,0,0.29,,,0.29,meteohub,2013-06-08 01:04:00,
2013-06-07 21:09:00,59.5,59.5,29.77,NNE,20,11.0,20.0,0,0.29,,,0.32,meteohub,2013-06-08 01:09:00,
2013-06-07 21:14:00,59.7,59.7,29.77,ENE,75,12.0,20.0,0,0.30,,,0.37,meteohub,2013-06-08 01:14:00,
2013-06-07 21:20:00,59.7,59.7,29.77,ENE,68,7.0,20.0,0,0.28,,,0.38,meteohub,2013-06-08 01:20:00,
2013-06-07 21:25:00,59.7,59.7,29.78,NE,54,5.0,18.0,0,0.27,,,0.39,meteohub,2013-06-08 01:25:00,
2013-06-07 21:30:00,59.7,59.7,29.78,NE,50,10.0,17.0,0,0.25,,,0.42,meteohub,2013-06-08 01:30:00,
2013-06-07 21:35:00,59.7,59.7,29.79,NNE,33,4.0,15.0,0,0.24,,,0.43,meteohub,2013-06-08 01:35:00,
2013-06-07 21:40:00,59.5,59.5,29.78,NE,41,9.0,15.0,0,0.30,,,0.50,meteohub,2013-06-08 01:40:00,
2013-06-07 21:45:00,59.4,59.4,29.78,NE,46,6.0,16.0,0,0.29,,,0.51,meteohub,2013-06-08 01:45:00,
2013-06-07 21:50:00,59.4,59.4,29.78,ENE,70,12.0,16.0,0,0.29,,,0.54,meteohub,2013-06-08 01:50:00,
2013-06-07 21:55:00,59.0,59.0,29.77,East,82,10.0,20.0,0,0.27,,,0.55,meteohub,2013-06-08 01:55:00,
2013-06-07 22:01:00,58.8,58.8,29.77,NNE,17,6.0,20.0,0,0.32,,,0.62,meteohub,2013-06-08 02:01:00,
2013-06-07 22:06:00,58.8,58.8,29.76,ENE,62,12.0,20.0,0,0.35,,,0.68,meteohub,2013-06-08 02:06:00,
2013-06-07 22:11:00,58.8,58.8,29.76,ENE,76,5.0,20.0,0,0.31,,,0.68,meteohub,2013-06-08 02:11:00,
2013-06-07 22:16:00,59.4,59.4,29.75,East,84,7.0,20.0,0,0.29,,,0.68,meteohub,2013-06-08 02:16:00,
2013-06-07 22:22:00,60.3,60.3,29.75,SE,128,1.0,16.0,0,0.33,,,0.73,meteohub,2013-06-08 02:22:00,
2013-06-07 22:27:00,60.6,60.6,29.75,ENE,65,1.0,16.0,0,0.31,,,0.73,meteohub,2013-06-08 02:27:00,
2013-06-07 22:32:00,61.2,61.2,29.74,North,358,2.0,16.0,0,0.30,,,0.73,meteohub,2013-06-08 02:32:00,
2013-06-07 22:37:00,61.9,61.9,29.74,NE,54,3.0,8.0,0,0.23,,,0.73,meteohub,2013-06-08 02:37:00,
2013-06-07 22:42:00,62.1,62.1,29.73,East,86,2.0,6.0,0,0.22,,,0.73,meteohub,2013-06-08 02:42:00,
2013-06-07 22:47:00,61.9,61.9,29.73,ESE,103,2.0,6.0,0,0.22,,,0.73,meteohub,2013-06-08 02:47:00,
2013-06-07 22:53:00,62.2,62.2,29.73,ESE,105,4.0,6.0,0,0.18,,,0.73,meteohub,2013-06-08 02:53:00,
2013-06-07 22:58:00,64.9,64.9,29.72,South,184,0.0,6.0,0,0.17,,,0.73,meteohub,2013-06-08 02:58:00,
2013-06-07 23:03:00,66.6,66.6,29.72,East,90,4.0,8.0,0,0.08,,,0.74,meteohub,2013-06-08 03:03:00,
2013-06-07 23:08:00,67.5,67.5,29.72,NW,309,2.0,10.0,0,0.13,,,0.81,meteohub,2013-06-08 03:08:00,
2013-06-07 23:13:00,67.6,67.6,29.70,SW,219,3.0,10.0,0,0.13,,,0.81,meteohub,2013-06-08 03:13:00,
2013-06-07 23:19:00,67.6,67.6,29.70,West,264,3.0,10.0,0,0.12,,,0.82,meteohub,2013-06-08 03:19:00,
2013-06-07 23:24:00,67.6,67.6,29.70,NNW,345,0.0,9.0,0,0.09,,,0.82,meteohub,2013-06-08 03:24:00,
2013-06-07 23:29:00,67.6,67.6,29.70,SSE,149,0.0,9.0,0,0.09,,,0.82,meteohub,2013-06-08 03:29:00,
2013-06-07 23:35:00,67.6,67.6,29.69,South,169,0.0,11.0,0,0.10,,,0.83,meteohub,2013-06-08 03:35:00,
2013-06-07 23:40:00,67.8,67.8,29.69,SW,219,0.0,13.0,0,0.45,,,1.18,meteohub,2013-06-08 03:40:00,
2013-06-07 23:45:00,68.2,68.2,29.69,East,87,1.0,13.0,0,0.45,,,1.18,meteohub,2013-06-08 03:45:00,
2013-06-07 23:50:00,68.4,68.4,29.70,ESE,116,0.0,23.0,0,0.51,,,1.24,meteohub,2013-06-08 03:50:00,
2013-06-07 23:56:00,68.4,68.4,29.70,SSE,166,9.0,23.0,0,0.51,,,1.25,meteohub,2013-06-08 03:56:00,